Theta_e
337 336 337 336 336 335 335 335 334 327 326 338 332 320 325 335 338 339 340 340 339 336 328 323 321 313 315 320 323 328 332 334 334 332 330 330 331 330 329 333 336 336 332
334 335 335 336 335 336 335 334 332 325 335 339 324 316 314 325 338 341 341 340 338 334 322 317 313 316 320 325 326 329 330 331 333 333 331 328 328 334 333 336 336 334 331
332 336 335 335 336 337 336 332 328 333 338 331 318 312 310 312 329 339 340 339 337 331 317 314 315 320 327 328 328 329 327 328 329 327 325 322 330 331 333 333 333 333 328
332 335 336 335 337 337 334 331 328 340 333 321 320 311 311 313 317 330 338 335 330 318 315 315 315 322 324 326 331 328 330 329 327 321 317 316 315 315 316 316 316 318 319
332 337 335 336 337 335 332 327 327 339 332 323 318 312 311 314 314 318 325 322 317 315 315 315 315 322 326 329 329 329 329 327 324 317 314 313 313 313 311 310 310 309 310
332 338 337 337 337 335 331 322 323 336 331 325 319 314 313 312 314 314 315 315 315 316 316 316 315 318 323 326 326 326 326 325 323 317 314 313 314 313 313 313 312 310 309
333 337 338 339 337 334 328 320 323 332 336 329 320 315 315 314 314 315 315 315 316 316 316 316 316 316 317 319 320 320 320 319 319 319 317 314 316 317 318 318 316 315 312
335 339 340 340 337 334 326 321 323 328 339 335 323 317 316 315 315 315 316 316 317 317 317 318 318 318 317 317 318 320 320 318 319 318 317 319 318 318 320 319 319 318 317
338 339 341 340 336 336 329 319 321 326 335 339 332 323 317 316 316 316 316 317 317 318 318 318 318 318 318 318 318 318 319 319 319 318 318 317 317 319 321 323 323 318 318
339 338 339 339 336 337 329 320 319 324 331 339 335 324 318 317 317 317 317 317 317 317 318 318 318 318 318 318 318 319 319 319 319 318 318 318 317 317 317 318 319 320 317
345 343 337 340 335 337 330 320 319 325 327 332 333 323 320 319 318 317 317 317 318 318 318 318 318 318 318 318 318 318 319 319 318 318 318 318 318 317 317 318 319 320 319
342 343 340 338 335 337 332 323 319 327 327 329 335 328 321 319 319 319 319 318 317 317 318 318 318 318 318 318 318 318 318 318 318 318 318 318 319 320 321 322 321 321 321
339 339 338 338 335 338 334 330 322 318 333 332 333 327 320 322 319 319 318 317 317 317 317 317 318 318 319 319 318 318 318 319 319 320 320 321 322 323 324 325 325 325 325
330 334 337 339 337 337 338 335 332 324 318 320 319 316 321 324 322 320 317 317 316 316 317 317 320 321 323 322 324 325 325 325 324 324 324 324 325 326 326 327 327 327 327
329 331 333 337 338 336 338 336 335 336 329 324 321 317 322 323 323 319 317 319 319 318 318 319 320 320 321 324 327 328 329 328 327 327 327 327 327 327 327 327 327 327 328
333 331 329 337 338 339 338 337 338 336 335 331 330 333 331 330 327 325 323 322 322 320 320 320 321 322 325 328 329 329 329 328 329 330 331 330 330 330 330 330 329 328 327
336 336 337 337 338 338 337 338 337 336 335 333 335 336 335 335 331 328 325 324 325 324 324 324 323 324 327 329 329 329 329 330 331 331 330 331 331 331 332 330 329 329 328
337 337 336 334 332 338 336 337 337 337 336 336 335 335 335 336 333 330 328 326 328 329 329 329 328 328 328 329 330 331 331 330 331 330 330 330 331 331 330 328 327 327 324
338 337 336 337 337 338 338 338 337 337 336 335 335 336 335 336 335 333 330 328 329 329 331 332 332 332 331 331 331 330 330 330 329 329 329 330 330 332 331 328 327 326 326
338 338 339 336 337 338 338 337 337 336 334 336 335 335 335 336 335 335 331 329 331 332 333 332 332 332 331 331 330 329 329 329 329 327 327 328 328 330 330 328 328 326 327
336 337 338 336 338 338 337 336 336 336 335 335 334 335 336 336 335 335 333 332 332 333 333 333 333 332 331 330 329 328 328 327 327 326 326 326 325 326 327 326 326 325 325
328 332 336 334 336 336 337 337 336 337 337 336 334 335 335 334 335 335 335 334 334 333 334 333 333 332 331 329 328 328 327 327 325 324 325 325 324 326 325 326 326 323 321
328 327 329 330 331 336 337 336 336 336 335 336 335 334 334 334 335 335 335 335 335 334 334 333 332 330 330 329 328 329 328 327 327 326 326 326 325 325 326 324 323 322 320
324 328 327 329 330 331 332 333 335 335 334 334 333 332 334 335 335 335 335 336 336 335 334 333 333 331 327 326 323 327 323 326 326 324 323 323 324 324 323 322 322 321 322
324 325 327 328 329 331 333 332 332 334 333 333 331 330 332 333 330 332 330 332 330 328 328 330 325 318 315 313 312 312 312 313 317 325 322 322 321 319 320 320 321 322 322
323 323 324 327 327 328 330 331 330 330 330 330 331 331 328 328 326 325 325 324 326 325 319 314 313 312 311 311 311 312 312 312 313 313 317 320 320 318 318 318 320 320 320
Wind_Speed
26 26 23 21 19 16 13 12 11 12 19 18 15 15 17 20 21 21 20 19 19 16 14 14 15 17 19 20 21 21 21 22 21 19 18 17 16 17 17 18 19 17 15
32 27 25 22 19 16 14 14 14 19 20 17 13 13 15 19 20 21 19 17 16 13 14 17 18 19 20 21 21 19 18 18 17 17 17 17 18 17 17 16 16 18 16
30 28 25 22 19 18 16 15 17 20 19 14 13 14 15 19 21 19 16 15 14 12 16 19 20 21 20 19 18 17 17 16 14 14 12 16 16 13 14 12 11 12 13
29 28 26 23 20 18 16 16 18 20 17 13 13 15 16 19 21 21 17 12 11 14 18 21 21 21 19 19 19 18 15 15 14 13 12 11 13 13 11 10 9 8 9
30 26 25 23 20 17 16 17 20 20 15 15 15 16 17 18 19 19 16 12 17 19 21 21 21 20 18 18 18 15 14 13 12 12 11 11 12 13 12 11 10 9 9
30 25 24 22 20 17 16 18 20 20 17 17 16 17 18 19 20 20 19 21 21 21 21 21 20 18 16 15 13 12 12 12 10 11 12 12 13 13 12 12 12 12 11
28 25 23 21 19 18 17 19 21 22 17 17 17 18 19 19 20 21 21 20 20 20 20 19 18 17 14 12 10 8 8 9 10 10 10 9 10 11 11 11 11 11 11
26 25 22 20 17 17 18 18 21 22 20 16 16 17 18 18 19 20 20 19 18 17 17 16 15 14 12 10 9 8 5 7 7 8 9 8 7 7 9 10 11 11 11
24 24 22 20 17 16 16 17 20 22 22 17 14 15 16 17 17 17 18 17 16 15 14 13 12 11 9 8 6 6 4 5 6 6 7 8 8 8 7 8 10 10 10
18 19 21 20 18 17 16 16 19 20 20 20 15 15 15 15 14 14 13 13 12 11 10 9 8 8 7 6 4 3 2 3 4 5 7 8 9 9 9 9 10 9 10
21 17 18 20 18 17 15 16 19 19 19 19 17 16 15 14 13 12 12 11 10 9 8 7 6 5 4 4 3 2 0 2 4 5 6 7 8 10 10 9 10 10 10
21 19 18 21 19 18 16 15 18 17 19 18 18 16 14 13 13 12 10 9 8 7 6 6 5 4 3 2 2 2 2 3 5 5 6 7 8 9 10 10 10 10 11
17 17 19 21 18 19 18 16 16 17 18 18 16 14 12 12 12 11 9 8 8 8 7 6 6 5 4 2 3 3 3 3 4 6 6 6 7 8 9 10 10 11 11
21 20 19 22 21 17 17 16 14 15 18 18 17 16 14 11 11 9 8 7 8 8 8 7 6 5 3 2 1 2 3 3 4 6 6 7 7 9 10 10 10 11 11
29 32 22 25 22 21 17 14 13 11 14 15 15 15 13 10 8 7 8 8 7 8 7 7 6 5 4 3 3 4 4 5 6 6 7 7 8 9 10 12 13 14 13
29 34 34 27 23 21 19 16 12 11 9 17 18 13 11 9 8 9 11 9 8 7 7 7 6 5 4 5 6 7 7 8 7 8 9 9 11 12 12 12 13 13 12
30 29 32 28 25 21 21 17 15 13 10 16 15 13 12 9 12 13 12 11 8 7 7 7 7 7 8 9 9 11 10 9 9 11 13 15 14 15 14 13 14 13 13
33 33 31 30 30 28 24 22 20 18 15 13 14 16 16 13 11 14 12 12 9 8 8 8 9 10 10 11 11 9 9 11 12 13 15 17 18 19 18 16 16 14 16
32 32 30 28 31 27 26 23 23 22 21 19 19 18 18 16 13 13 14 12 12 11 10 9 9 10 10 10 11 13 14 15 17 19 20 20 21 22 20 15 15 15 17
28 28 28 31 31 27 25 23 26 25 25 24 20 22 21 17 14 13 14 14 13 12 10 9 11 12 12 14 16 17 19 21 21 19 20 19 19 20 18 14 15 15 15
25 28 30 27 28 28 28 28 29 29 28 28 23 20 21 19 17 15 14 14 14 12 12 13 15 16 16 15 19 20 23 23 24 22 20 20 20 18 18 21 16 14 16
22 24 25 26 29 31 31 32 34 30 31 30 28 26 25 20 20 17 15 14 14 13 15 17 19 20 19 17 20 23 27 26 24 17 15 13 15 13 17 17 15 14 16
26 22 24 26 29 31 31 30 30 28 28 28 26 25 23 23 21 20 19 17 17 18 19 19 18 19 21 22 21 23 15 11 14 14 11 16 16 13 14 14 18 18 19
28 25 18 22 26 27 29 29 30 31 31 29 26 21 25 25 25 24 23 21 21 21 21 21 22 24 26 28 27 29 28 29 28 17 16 13 15 14 15 16 19 22 18
28 26 25 24 25 27 29 31 30 31 30 27 24 24 26 28 24 25 24 23 20 20 21 22 24 25 25 26 25 25 23 22 23 25 24 21 21 19 19 21 20 18 17
33 29 26 26 25 25 27 28 27 30 27 27 28 26 25 24 25 24 24 23 21 22 21 22 23 23 24 24 23 23 23 22 22 20 17 17 18 18 20 20 22 20 18
Wind_Direction
171 162 163 159 153 148 142 133 128 119 123 122 121 122 129 125 119 123 127 127 122 117 113 107 106 109 107 103 100 100 97 91 85 87 88 89 82 80 75 72 61 57 63
161 162 162 157 152 148 141 134 129 127 128 134 127 126 137 140 132 117 122 128 123 117 101 105 110 112 110 108 106 100 96 92 91 88 82 86 81 70 75 74 65 67 65
162 159 159 157 151 146 142 135 132 131 134 129 122 120 132 147 146 133 123 124 125 106 109 112 114 114 111 108 99 97 94 91 85 79 77 85 92 87 86 76 66 60 56
163 160 159 158 152 150 147 141 140 139 138 126 116 116 124 140 151 148 142 145 125 118 116 113 115 117 111 104 102 96 97 91 77 67 71 65 80 84 76 65 57 49 44
164 161 161 157 153 150 148 146 147 145 139 129 118 114 116 121 135 151 155 142 124 122 119 115 117 118 112 106 106 101 91 81 74 67 65 68 69 69 64 57 51 49 47
163 160 159 156 152 151 153 147 151 149 140 130 122 117 114 117 120 124 121 122 123 120 117 117 118 121 115 107 100 100 95 86 72 64 68 66 66 63 59 54 49 46 44
161 162 160 157 157 156 155 150 152 152 145 134 125 121 118 118 122 123 122 122 120 119 119 121 121 121 121 118 110 93 80 76 70 64 61 61 57 54 50 46 43 41 39
162 163 161 161 164 161 155 154 155 156 147 145 132 127 125 124 125 126 126 125 125 123 123 123 123 122 120 117 114 107 90 79 75 59 51 47 38 32 32 32 31 31 30
169 166 163 168 168 167 159 158 160 159 153 151 145 138 135 134 133 133 134 134 134 133 132 128 126 124 122 118 110 100 79 48 57 50 39 32 24 15 4 1 10 16 19
173 176 172 174 174 174 163 160 163 163 161 156 165 143 141 138 137 138 137 137 137 137 137 135 136 135 135 135 131 121 94 7 25 24 20 13 12 4 354 354 349 1 8
181 183 190 186 181 178 170 162 166 166 168 167 161 149 148 144 146 147 148 148 151 151 151 152 151 152 154 153 164 178 158 339 347 2 5 357 358 355 352 349 351 353 356
187 187 199 195 188 183 176 168 169 170 175 174 170 169 165 159 158 162 161 163 166 172 174 175 180 180 183 192 227 262 294 308 324 338 346 348 349 349 344 349 344 345 346
194 201 192 199 197 192 186 177 172 177 175 178 183 190 185 174 172 173 180 188 188 191 197 201 209 207 207 227 249 277 282 299 319 334 330 340 342 339 338 338 340 337 334
211 236 209 199 201 199 198 192 188 183 187 191 195 201 199 196 191 195 205 194 197 197 203 207 215 218 222 269 275 322 322 326 324 318 322 328 331 329 327 326 326 324 321
184 201 216 210 199 204 203 199 201 205 203 193 191 200 208 212 224 219 215 208 202 207 206 208 223 235 236 263 292 309 307 310 314 317 323 326 325 323 321 321 322 321 314
189 202 197 212 206 210 205 208 210 212 224 213 206 206 216 227 237 234 227 222 214 212 216 219 230 247 257 276 285 289 295 299 299 309 319 321 322 318 318 319 322 320 314
197 199 196 198 209 209 209 209 213 221 236 205 202 210 229 242 240 237 235 231 229 234 241 248 252 254 260 269 274 281 284 289 294 304 309 306 311 311 310 318 315 314 311
203 203 211 209 213 214 216 208 221 223 227 208 209 215 228 245 252 240 235 230 231 237 240 245 247 256 263 266 267 268 281 294 290 291 290 291 291 298 302 296 302 299 309
210 207 206 209 213 209 213 213 223 223 221 223 231 222 229 246 251 250 240 233 231 236 245 249 256 260 268 274 289 284 282 284 283 284 285 283 282 286 287 283 286 289 293
208 210 206 211 211 206 214 227 225 224 225 227 224 226 222 239 246 248 240 230 230 233 243 253 255 259 269 273 278 284 282 284 283 286 292 289 286 279 279 273 282 279 282
213 209 210 215 218 219 225 222 218 219 225 230 226 226 233 237 244 246 239 231 230 234 237 248 257 262 270 276 281 287 284 286 285 285 283 284 288 270 269 273 282 270 286
206 211 215 217 225 222 223 228 224 222 225 231 230 228 238 236 232 236 239 237 239 234 243 249 254 264 267 273 277 284 288 291 294 294 283 270 279 278 278 277 274 281 296
213 200 211 219 221 221 222 220 220 222 227 226 228 227 222 228 231 234 236 242 241 239 244 249 255 263 270 270 272 272 287 283 295 300 248 279 284 275 271 276 280 289 298
220 212 211 224 227 230 230 226 225 225 223 225 225 222 221 231 234 235 242 238 239 245 249 254 259 263 270 273 277 270 268 269 276 285 278 273 262 264 267 280 284 289 282
224 221 219 222 227 230 233 234 234 235 237 236 229 228 233 234 236 243 249 249 249 257 258 265 270 270 271 274 274 278 276 271 265 263 276 267 270 270 276 281 273 269 274
220 221 225 226 226 234 244 239 240 242 239 248 241 229 229 238 245 249 251 254 256 257 260 266 270 275 276 277 276 275 275 275 273 271 267 269 265 270 270 271 265 269 264